When you browse on this site, cookies collect data to enhance your experience and personalize the content and advertising you see.
Visit our Privacy Policy to learn more. By continuing to use the site, you agree to this use of cookies and data.
  • In France
  • List of Countries
  • For 7 days
  • Water Temperature
  • Satellite Maps
  • Weather Map
  • Weather Widgets
  • user-avatar
    Login

    Hourly Weather Uige

    Today, 17 November, Saturday

    Time Temperature Precipitation Wind Pressure Humidity
    00:00 +20°C° 0 mm 0 mps 691 mmHg 94%
    01:00 +20°C° 0 mm 0 mps 691 mmHg 95%
    02:00 +20°C° 0 mm 0 mps 691 mmHg 95%
    03:00 +20°C° 0 mm 0 mps 691 mmHg 96%
    04:00 +19°C° 0 mm 0 mps 691 mmHg 96%
    05:00 +20°C° 0 mm 0 mps 691 mmHg 95%
    06:00 +21°C° 0 mm 0 mps 691 mmHg 95%
    07:00 +21°C° 0 mm 0 mps 692 mmHg 94%
    08:00 +23°C° 0.9 mm 0 mps 692 mmHg 89%
    09:00 +24°C° 0.9 mm 0 mps 692 mmHg 84%
    10:00 +28°C° 0.9 mm 1 mps 693 mmHg 80%
    11:00 +28°C° 1.5 mm 1 mps 692 mmHg 78%
    12:00 +29°C° 1.5 mm 1 mps 691 mmHg 76%
    13:00 +28°C° 1.5 mm 0 mps 691 mmHg 74%
    14:00 +27°C° 1.9 mm 0 mps 690 mmHg 77%
    15:00 +28°C° 1.9 mm 1 mps 690 mmHg 80%
    16:00 +27°C° 1.9 mm 1 mps 690 mmHg 83%
    17:00 +26°C° 1.6 mm 1 mps 690 mmHg 87%
    18:00 +25°C° 1.6 mm 1 mps 690 mmHg 90%
    19:00 +23°C° 1.6 mm 1 mps 691 mmHg 94%
    20:00 +23°C° 0.6 mm 1 mps 691 mmHg 95%
    21:00 +23°C° 0.6 mm 1 mps 692 mmHg 96%
    22:00 +22°C° 0.6 mm 1 mps 692 mmHg 97%
    23:00 +22°C° 0.1 mm 1 mps 692 mmHg 98%

    Tomorrow, 18 November, Sunday

    Time Temperature Precipitation Wind Pressure Humidity
    00:00 +22°C° 0.1 mm 1 mps 692 mmHg 98%
    01:00 +22°C° 0.1 mm 1 mps 691 mmHg 99%
    02:00 +22°C° 0.1 mm 1 mps 691 mmHg 99%
    03:00 +22°C° 0.1 mm 1 mps 691 mmHg 99%
    04:00 +22°C° 0.1 mm 1 mps 691 mmHg 99%
    05:00 +23°C° 0.2 mm 1 mps 691 mmHg 98%
    06:00 +23°C° 0.2 mm 1 mps 692 mmHg 97%
    07:00 +23°C° 0.2 mm 1 mps 692 mmHg 97%
    08:00 +25°C° 1.1 mm 1 mps 692 mmHg 91%
    09:00 +26°C° 1.1 mm 1 mps 692 mmHg 86%
    10:00 +28°C° 1.1 mm 1 mps 693 mmHg 80%
    11:00 +28°C° 0.8 mm 1 mps 692 mmHg 76%
    12:00 +29°C° 0.8 mm 1 mps 691 mmHg 72%
    13:00 +30°C° 0.8 mm 1 mps 691 mmHg 68%
    14:00 +29°C° 1.1 mm 1 mps 690 mmHg 75%
    15:00 +28°C° 1.1 mm 1 mps 690 mmHg 82%
    16:00 +27°C° 1.1 mm 1 mps 689 mmHg 90%
    17:00 +25°C° 0.2 mm 1 mps 690 mmHg 92%
    18:00 +24°C° 0.2 mm 1 mps 690 mmHg 94%
    19:00 +21°C° 0.2 mm 0 mps 690 mmHg 96%
    20:00 +21°C° 0 mm 0 mps 691 mmHg 96%
    21:00 +21°C° 0 mm 0 mps 691 mmHg 96%
    22:00 +21°C° 0 mm 0 mps 692 mmHg 96%
    23:00 +20°C° 0 mm 0 mps 691 mmHg 96%

    Day after tomorrow, 19 November, Monday

    Time Temperature Precipitation Wind Pressure Humidity
    00:00 +20°C° 0 mm 0 mps 691 mmHg 96%
    01:00 +20°C° 0 mm 0 mps 691 mmHg 96%
    02:00 +20°C° 0.1 mm 0 mps 691 mmHg 96%
    03:00 +20°C° 0.1 mm 0 mps 690 mmHg 96%
    04:00 +22°C° 0.1 mm 1 mps 690 mmHg 96%
    05:00 +22°C° 0.2 mm 1 mps 691 mmHg 96%
    06:00 +23°C° 0.2 mm 1 mps 691 mmHg 95%
    07:00 +23°C° 0.2 mm 1 mps 692 mmHg 94%
    08:00 +24°C° 0.7 mm 1 mps 692 mmHg 91%
    09:00 +26°C° 0.7 mm 1 mps 692 mmHg 88%
    10:00 +27°C° 0.7 mm 1 mps 693 mmHg 85%
    11:00 +27°C° 1.2 mm 1 mps 692 mmHg 82%
    12:00 +28°C° 1.2 mm 1 mps 691 mmHg 79%
    13:00 +29°C° 1.2 mm 1 mps 690 mmHg 77%
    14:00 +28°C° 1.1 mm 1 mps 690 mmHg 78%
    15:00 +28°C° 1.1 mm 1 mps 689 mmHg 80%
    16:00 +26°C° 1.1 mm 0 mps 689 mmHg 81%
    17:00 +24°C° 0.9 mm 0 mps 689 mmHg 85%
    18:00 +23°C° 0.9 mm 0 mps 689 mmHg 89%
    19:00 +21°C° 0.9 mm 0 mps 690 mmHg 93%
    20:00 +21°C° 0.1 mm 0 mps 690 mmHg 94%
    21:00 +20°C° 0.1 mm 0 mps 691 mmHg 94%
    22:00 +20°C° 0.1 mm 0 mps 691 mmHg 95%
    23:00 +22°C° 0.4 mm 1 mps 691 mmHg 96%

    20 November, Tuesday

    Time Temperature Precipitation Wind Pressure Humidity
    00:00 +22°C° 0.4 mm 1 mps 691 mmHg 97%
    01:00 +22°C° 0.4 mm 1 mps 690 mmHg 98%
    02:00 +22°C° 0.2 mm 1 mps 690 mmHg 98%
    03:00 +22°C° 0.2 mm 1 mps 690 mmHg 99%
    04:00 +22°C° 0.2 mm 1 mps 690 mmHg 99%
    05:00 +22°C° 0.4 mm 1 mps 690 mmHg 98%
    06:00 +23°C° 0.4 mm 1 mps 691 mmHg 97%
    07:00 +23°C° 0.4 mm 1 mps 691 mmHg 97%
    08:00 +24°C° 0.4 mm 1 mps 692 mmHg 92%
    09:00 +26°C° 0.4 mm 1 mps 692 mmHg 86%
    10:00 +27°C° 0.4 mm 1 mps 692 mmHg 81%
    11:00 +28°C° 0.7 mm 1 mps 692 mmHg 77%
    12:00 +29°C° 0.7 mm 1 mps 691 mmHg 72%
    13:00 +30°C° 0.7 mm 1 mps 690 mmHg 67%
    14:00 +29°C° 0.7 mm 1 mps 690 mmHg 72%
    15:00 +29°C° 0.7 mm 1 mps 690 mmHg 77%
    16:00 +28°C° 0.7 mm 1 mps 689 mmHg 82%
    17:00 +26°C° 1.4 mm 1 mps 690 mmHg 86%
    18:00 +25°C° 1.4 mm 1 mps 690 mmHg 89%
    19:00 +23°C° 1.4 mm 1 mps 691 mmHg 93%
    20:00 +23°C° 0.1 mm 1 mps 691 mmHg 94%
    21:00 +23°C° 0.1 mm 1 mps 691 mmHg 95%
    22:00 +22°C° 0.1 mm 1 mps 692 mmHg 97%
    23:00 +22°C° 0 mm 1 mps 691 mmHg 97%

    21 November, Wednesday

    Time Temperature Precipitation Wind Pressure Humidity
    00:00 +22°C° 0 mm 1 mps 691 mmHg 98%
    01:00 +22°C° 0 mm 1 mps 690 mmHg 98%
    02:00 +22°C° 0 mm 1 mps 690 mmHg 98%
    03:00 +22°C° 0 mm 1 mps 690 mmHg 98%
    04:00 +22°C° 0 mm 1 mps 690 mmHg 98%
    05:00 +22°C° 0.1 mm 1 mps 691 mmHg 97%
    06:00 +22°C° 0.1 mm 1 mps 691 mmHg 96%
    07:00 +23°C° 0.1 mm 1 mps 692 mmHg 95%
    08:00 +24°C° 0.5 mm 1 mps 692 mmHg 93%
    09:00 +24°C° 0.5 mm 1 mps 692 mmHg 91%
    10:00 +25°C° 0.5 mm 1 mps 693 mmHg 88%
    11:00 +26°C° 0.4 mm 1 mps 692 mmHg 84%
    12:00 +27°C° 0.4 mm 1 mps 691 mmHg 79%
    13:00 +27°C° 0.4 mm 1 mps 690 mmHg 75%
    14:00 +27°C° 0.2 mm 1 mps 690 mmHg 77%
    15:00 +26°C° 0.2 mm 1 mps 689 mmHg 80%
    16:00 +26°C° 0.2 mm 1 mps 689 mmHg 82%
    17:00 +25°C° 0 mm 1 mps 689 mmHg 85%
    18:00 +24°C° 0 mm 1 mps 690 mmHg 88%
    19:00 +23°C° 0 mm 1 mps 690 mmHg 90%
    20:00 +23°C° 0 mm 1 mps 691 mmHg 90%
    21:00 +22°C° 0 mm 1 mps 691 mmHg 89%
    22:00 +20°C° 0 mm 0 mps 691 mmHg 89%
    23:00 +20°C° 0 mm 0 mps 691 mmHg 90%

    22 November, Thursday

    Time Temperature Precipitation Wind Pressure Humidity
    00:00 +19°C° 0 mm 0 mps 690 mmHg 91%
    01:00 +19°C° 0 mm 0 mps 690 mmHg 93%
    02:00 +19°C° 0.2 mm 0 mps 690 mmHg 94%
    03:00 +19°C° 0.2 mm 0 mps 690 mmHg 95%
    04:00 +19°C° 0.2 mm 0 mps 690 mmHg 96%
    05:00 +19°C° 0.2 mm 0 mps 690 mmHg 95%
    06:00 +20°C° 0.2 mm 0 mps 691 mmHg 94%
    07:00 +20°C° 0.2 mm 0 mps 691 mmHg 93%
    08:00 +24°C° 0 mm 1 mps 692 mmHg 89%
    09:00 +25°C° 0 mm 1 mps 692 mmHg 85%
    10:00 +26°C° 0 mm 1 mps 692 mmHg 80%
    11:00 +27°C° 0.2 mm 1 mps 692 mmHg 76%
    12:00 +28°C° 0.2 mm 1 mps 691 mmHg 73%
    13:00 +28°C° 0.2 mm 2 mps 690 mmHg 69%
    14:00 +28°C° 0.3 mm 2 mps 690 mmHg 72%
    15:00 +28°C° 0.3 mm 2 mps 689 mmHg 75%
    16:00 +27°C° 0.3 mm 2 mps 689 mmHg 79%
    17:00 +26°C° 0.7 mm 1 mps 689 mmHg 84%
    18:00 +24°C° 0.7 mm 1 mps 690 mmHg 90%
    19:00 +23°C° 0.7 mm 1 mps 690 mmHg 96%
    20:00 +22°C° 0.2 mm 1 mps 690 mmHg 96%
    21:00 +22°C° 0.2 mm 1 mps 690 mmHg 97%
    22:00 +22°C° 0.2 mm 1 mps 691 mmHg 97%
    23:00 +21°C° 0 mm 1 mps 690 mmHg 97%
    Show more